User: anonymous   Login
Location: Owatonna
(44.0840°N, 93.2260°W)
Time: 16:30:27
(UTC-06:00)
Language:

Cosmos 1500 Rocket - Orbit

View from above orbital plane
View from above orbital plane
View from above satellite
View from above satellite

Ground track
Ground track

The orbit data is extracted from the following two-line orbital elements,

1 14373U 83099B   18054.38883455  .00000077  00000-0  63735-5 0  9992
2 14373  82.5425   9.7850 0021614 115.8151 359.3559 14.83713780858126
Epoch (UTC): 23 February 2018 09:19:55
Eccentricity: 0.0021614
inclination: 82.5425°
perigee height: 602 km
apogee height: 633 km
right ascension of ascending node: 9.7850°
argument of perigee: 115.8151°
revolutions per day: 14.83713780
mean anomaly at epoch: 359.3559°
orbit number at epoch: 85812

The dashed part of the orbit path shows where the satellite is in the earth's shadow,  

DLR